User: anonymous   Login
Location: Unspecified
(0.0000°N, 0.0000°E)
Time: 08:47:23
(UTC+00:00)
Language:

DIAMOND GREEN - Orbit

View from above orbital plane
View from above orbital plane
View from above satellite
View from above satellite

Ground track
Ground track

The orbit data is extracted from the following two-line orbital elements,

1 42785U 17036W   18267.90540876 +.00001149 +00000-0 +53796-4 0  9995
2 42785 097.3913 325.9171 0013986 088.5384 271.7454 15.21655165069744
Epoch (UTC): 24 September 2018 21:43:47
Eccentricity: 0.0013986
inclination: 97.3913°
perigee height: 491 km
apogee height: 510 km
right ascension of ascending node: 325.9171°
argument of perigee: 88.5384°
revolutions per day: 15.21655165
mean anomaly at epoch: 271.7454°
orbit number at epoch: 6974

The dashed part of the orbit path shows where the satellite is in the earth's shadow,  

DLR